Regional Weather Roundup
Issued by NWS Green Bay, WI

Home | Current Version | Previous Version | Text Only | Print | Product List | Glossary On
Versions: 1 2 3 4 5 6 7 8 9 10 11 12 13 14 15 16 17 18 19 20 21 22 23 24 25 26 27 28 29 30 31 32 33 34 35 36 37 38 39 40 41 42 43 44 45 46 47 48 49 50
458
ASUS43 KGRB 081711
RWRGRB

NORTH-CENTRAL AND NORTHEAST WISCONSIN REGIONAL WEATHER ROUNDUP
NATIONAL WEATHER SERVICE GREEN BAY WI
1100 AM CST MON FEB 08 2016

WIZ005-009-010>012-018-019-081800-
NORTH CENTRAL WISCONSIN

CITY           SKY/WX    TMP DP  RH WIND       PRES   REMARKS
IRONWOOD       CLOUDY    18  12  79 NW14      29.74S WCI   4
MANITOWISH WTR LGT SNOW  18  13  79 N9G18     29.70R WCI   7
ARBOR VITAE    LGT SNOW  22  17  81 N14       29.69S WCI   9
EAGLE RIVER    CLOUDY    20  12  71 N10G21    29.67S WCI   9
LAND O LAKES   LGT SNOW  19  14  80 N13       29.69R WCI   7
RHINELANDER    CLOUDY    21  15  78 N8        29.68R
PHILLIPS       FLURRIES  18  13  82 N10       29.73R WCI   6
ANTIGO         CLOUDY    23  18  80 N13       29.64R
TOMAHAWK       CLOUDY    20  16  84 NW14      29.70R WCI   7
MERRILL        CLOUDY    23  18  80 N14       29.69R
$$

WIZ013-073-081800-
NORTHEAST WISCONSIN

CITY           SKY/WX    TMP DP  RH WIND       PRES   REMARKS
IRON MOUNTAIN  LGT SNOW  22  15  75 NW17      29.65R WCI   8
MARINETTE      CLOUDY    30  27  86 N10G21    29.63R
OCONTO         CLOUDY    33  33 100 N10       29.63R
$$

WIZ017-030-035>037-045-081800-
CENTRAL WISCONSIN

CITY           SKY/WX    TMP DP  RH WIND       PRES   REMARKS
MEDFORD        CLOUDY    18  14  86 NW18G24   29.70R FOG     WCI   2
WAUSAU         CLOUDY    26  17  68 NW15G22   29.66R
MOSINEE        CLOUDY    25  19  80 NW17      29.68R
MARSHFIELD     CLOUDY    19  11  70 NW18      29.70R WCI   4
WISC RAPIDS    CLOUDY    22  13  68 NW12      29.72R
STEVENS POINT  CLOUDY    25  18  74 NW10      29.68R
WAUPACA        FLURRIES  29  21  73 W7        29.67R
SHAWANO        CLOUDY    34  26  74 NW9       29.64S
CLINTONVILLE   CLOUDY    30  23  74 NW8       29.64S
WAUTOMA        CLOUDY    24  17  74 NW9       29.69R
$$

WIZ038-039-048-051-081800-
FOX VALLEY

CITY           SKY/WX    TMP DP  RH WIND       PRES   REMARKS
NWS GREEN BAY  FLURRIES  31  25  78 NW12      29.63S
APPLETON       CLOUDY    27  19  74 W13       29.63R
OSHKOSH        CLOUDY    25  18  74 W15       29.65R
FOND DU LAC    CLOUDY    25  18  74 NW12      29.66R
$$

WIZ022-050-052-081800-
EAST CENTRAL WISCONSIN

CITY           SKY/WX    TMP DP  RH WIND       PRES   REMARKS
EPHRAIM        CLOUDY    31  28  90 N9G16     29.62R
STURGEON BAY   CLOUDY    34  28  80 N8        29.64R
MANITOWOC      MIX PCPN  32  28  85 W9        29.64R
SHEBOYGAN      CLOUDY    28  21  75 NW14      29.64R
$$

LMZ563-521-522-541>543-081800-
LAKESHORE

STATION/POSITION TIME  TEMP    WIND        PRES    VSBY  WAVE
                       AIR SEA DIR/SP/G                  HT/PER
                 (UTC) (F)     (DEG/KT/KT) (MB)    (MI)  (FT/S)
SHEBOYGAN LKSHOR 1700   28     290/ 16/ 18 1004.4R
KEWAUNEE LKSHORE 1600   33     290/  7/ 11 1002.0R
ALGOMA MARINA    1641          320/  8/ 10   N/A
NORTHPORT PIER   1600   33     350/ 10/ 12 1003.0R
CHAMBERS ISLAND  1600   33     360/  5/  6 1003.4R
MENOMINEE LKSHOR 1600   34     340/  5     1001.9R
$$




USA.gov is the U.S. government's official web portal to all federal, state and local government web resources and services.